Terug naar catalogus

FENGYUN 1C DEB *

LostSSO
NORAD 47011·DEBRIS·🇨🇳 China

Gelanceerd May 10, 1999 vanaf Taiyuan Satellite Launch Center

Loading…

Volgende Passages (komende 24 uur)

TLE

VerouderdSource: Space-Track

Epoch: Sep 13, 2022, 21:59 UTC

1 47011U 99025FAM 22256.91653560  .00002473  00000-0  12861-2 0  9996
2 47011  99.0815 307.2918 0095945  42.0179 318.8301 14.13270184609888

Volg FENGYUN 1C DEB * in realtime met AllMySat

Download on the App Store